Location: Cheching
(60.0667°N, 164.2167°W)
Time: 21:54:58
(UTC+00:00)

LilacSat-2 - Pass Details

Date: 20 January 2021
Orbit: 512 x 534 km, 97.5° (Epoch: 07 March)

Event Time Altitude Azimuth Distance (km) Brightness Sun altitude
Rises 17:38:19 0° 14° (NNE) 2,684 ? -13.5°
Reaches altitude 10° 17:40:27 10° 10° (N) 1,793 ? -13.3°
Maximum altitude 17:44:14 56° 292° (WNW) 641 ? -12.8°
Drops below altitude 10° 17:48:02 10° 214° (SW) 1,789 ? -12.4°
Sets 17:50:09 0° 211° (SSW) 2,678 ? -12.1°
